Regional Weather Roundup
Issued by NWS

Home | Current Version | Previous Version | Text Only | Print | Product List | Glossary On
Versions: 1 2 3 4 5 6 7 8 9 10 11 12 13 14 15 16 17 18 19 20 21 22 23 24 25 26 27 28 29 30 31 32 33 34 35 36 37 38 39 40 41 42 43 44 45 46 47 48 49 50
000
ASUS43 KFSD 060902
RWRSD

WEATHER ROUNDUP FOR SOUTH DAKOTA
NATIONAL WEATHER SERVICE SIOUX FALLS SD
400 AM CDT MON JUL 06 2015

NOTE: "FAIR" INDICATES FEW OR NO CLOUDS BELOW 12,000 FEET WITH NO
SIGNIFICANT WEATHER AND/OR OBSTRUCTIONS TO VISIBILITY.


SDZ001>005-009-010-012>017-061000-
NORTHWEST AND NORTH CENTRAL SOUTH DAKOTA

CITY           SKY/WX    TMP DP  RH WIND       PRES   REMARKS
BUFFALO          N/A     58  53  84 NW12      30.08R
FAITH            N/A     60  55  83 N9        30.08R
MOBRIDGE       CLOUDY    66  64  93 N8        30.00R FOG
$$

SDZ012>016-024>037-041>051-057-063-072>074-061000-
SOUTHWEST AND SOUTH CENTRAL SOUTH DAKOTA

CITY           SKY/WX    TMP DP  RH WIND       PRES   REMARKS
RAPID CTY ARPT LGT RAIN  60  56  86 N12       30.13R FOG
PIERRE         CLOUDY    64  62  93 N13       29.97S FOG
CUSTER         LGT RAIN  52  49  89 N8        30.21R FOG
ELLSWORTH AFB  LGT RAIN  60  57  89 NW14      30.12R
PHILIP         CLOUDY    63  61  93 NW9       30.05R FOG
PINE RIDGE     LGT RAIN  60  57  89 N10       30.10R FOG
WINNER         LGT RAIN  66  64  93 N15       29.94S FOG
$$

SDZ004>011-016>023-039-040-061000-
NORTHEAST SOUTH DAKOTA

CITY           SKY/WX    TMP DP  RH WIND       PRES   REMARKS
ABERDEEN       LGT RAIN  66  61  84 N13       29.96R
WATERTOWN      LGT RAIN  66  63  90 N9        29.91R
BROOKINGS      CLOUDY    68  64  88 NW10      29.89S
SISSETON         N/A     67  64  90 N7        29.90R
$$

SDZ017-020-022-023-036>040-048>070-061000-
SOUTHEAST SOUTH DAKOTA

CITY           SKY/WX    TMP DP  RH WIND       PRES   REMARKS
SIOUX FALLS    LGT RAIN  69  69 100 N14       29.81F
HURON          LGT RAIN  67  66  97 N10       29.89S
CHAMBERLAIN    RAIN      65  64  97 N16G22    29.91S
MITCHELL       CLOUDY    68  66  93 NE21G30   29.81F
YANKTON        CLOUDY    70  66  88 W5        29.80F
$$

ABBREVIATIONS USED IN REMARKS
   TC - TEMPERATURE IN CELSIUS
  WCI - WIND CHILL INDEX
   HX - HEAT INDEX
  VSB - VISIBILITY




USA.gov is the U.S. government's official web portal to all federal, state and local government web resources and services.